This is the latest recevied weather packets stored in our database for station/object N9BSW. If no packets are shown the sender has not sent any weather packets the latest 10 day(s).
| Time | Temp. | Humidity | Pressure | Rain* | Wind** | Luminosity | Snow |
|---|---|---|---|---|---|---|---|
| 1777835251 | 18.89° C | 38% | 1015.1 hPa | 0 mm | - | 497 W/m² | - |
| 1777834947 | 18.89° C | 37% | 1015.1 hPa | 0 mm | - | 483 W/m² | - |
| 1777834645 | 18.33° C | 37% | 1015.1 hPa | 0 mm | - | 694 W/m² | - |
| 1777834340 | 17.78° C | 39% | 1015.7 hPa | 0 mm | - | 971 W/m² | - |
| 1777834035 | 17.78° C | 41% | 1015.4 hPa | 0 mm | - | 880 W/m² | - |
| 1777833732 | 17.22° C | 39% | 1015.4 hPa | 0 mm | - | 815 W/m² | - |
| 1777833428 | 17.22° C | 38% | 1015.8 hPa | 0 mm | - | 550 W/m² | - |
| 1777833126 | 17.78° C | 37% | 1015.8 hPa | 0 mm | - | 515 W/m² | - |
| 1777832823 | 17.22° C | 38% | 1016 hPa | 0 mm | - | 927 W/m² | - |
| 1777832522 | 16.67° C | 38% | 1016.1 hPa | 0 mm | - | 756 W/m² | - |
| 1777832218 | 16.67° C | 38% | 1016.3 hPa | 0 mm | - | 412 W/m² | - |
| 1777831915 | 16.67° C | 39% | 1016.4 hPa | 0 mm | - | 589 W/m² | - |
| 1777831611 | 16.67° C | 39% | 1016.4 hPa | 0 mm | - | 457 W/m² | - |
| 1777831310 | 16.67° C | 40% | 1016.5 hPa | 0 mm | - | 477 W/m² | - |
| 1777831007 | 16.67° C | 39% | 1016.6 hPa | 0 mm | - | 464 W/m² | - |
| 1777830704 | 16.67° C | 36% | 1016.9 hPa | 0 mm | - | 469 W/m² | - |
| 1777830400 | 17.22° C | 35% | 1016.7 hPa | 0 mm | - | 582 W/m² | - |
| 1777830097 | 17.22° C | 36% | 1016.8 hPa | 0 mm | - | 566 W/m² | - |
| 1777829792 | 16.11° C | 38% | 1017.1 hPa | 0 mm | - | 1072 W/m² | - |
| 1777829489 | 16.67° C | 38% | 1017.2 hPa | 0 mm | - | 416 W/m² | - |
| 1777829186 | 16.67° C | 38% | 1017.3 hPa | 0 mm | - | 353 W/m² | - |
| 1777828884 | 16.67° C | 37% | 1017.2 hPa | 0 mm | - | 466 W/m² | - |
| 1777828580 | 17.22° C | 35% | 1017.2 hPa | 0 mm | - | 883 W/m² | - |
| 1777828277 | 16.67° C | 38% | 1017.3 hPa | 0 mm | - | 457 W/m² | - |
| 1777827974 | 16.11° C | 36% | 1017.4 hPa | 0 mm | - | 415 W/m² | - |
* Rain latest hour (hover to see other rain measurements)
** Current wind speed in m/s (hover to see current wind gust speed)